Lakeville, MN

3:20 AM CST on January 22, 2018 (GMT -0600)
Airlake

Weather History for KLVN - December, 2012

Change the Weather History Date:

Thursday, December 13, 2012

  Actual Average Record
Temperature  
Mean Temperature 24 °F -  
Max Temperature 35 °F 28 °F 51 °F (2014)
Min Temperature 12 °F 12 °F -19 °F (1985)
Degree Days  
Heating Degree Days 42    
Moisture  
Dew Point 18 °F    
Average Humidity 71    
Maximum Humidity 100    
Minimum Humidity 52    
Precipitation  
Precipitation 0.00 in - - ()
Sea Level Pressure  
Sea Level Pressure 29.99 in    
Wind  
Wind Speed 4 mph (SW)    
Max Wind Speed 9 mph    
Max Gust Speed 16 mph    
Visibility 9 miles    
Events      
Averages and records for this station are not official NWS values.
T = Trace of Precipitation, MM = Missing Value Source: NWS Daily Summary

Daily Weather History Graph

Daily Weather History Graph

Search for Another Location

Airport or City:

Trip Planner

Search our weather history database for the weather conditions in past years. The results will help you decide how hot, cold, wet, or windy it might be!

Date:

Astronomy

Dec. 13, 2012 Rise Set
Actual Time 7:41 AM CST 4:32 PM CST
Civil Twilight 7:08 AM CST 5:06 PM CST
Nautical Twilight 6:31 AM CST 5:43 PM CST
Astronomical Twilight 5:55 AM CST 6:18 PM CST
Moon 7:50 AM CST (12/13) 5:17 PM CST (12/13)
Length of Visible Light 9h 58m
Length of Day
8h 51m
New Moon, 0% of the Moon is Illuminated
Dec 13
New Moon
Dec 19
First Quarter
Dec 28
Full
Jan 4
Last Quarter
Jan 11
New

Hourly Weather History & Observations

Time (CST) Temp. Windchill Dew Point Humidity Pressure Visibility Wind Dir Wind Speed Gust Speed Precip Events Conditions
12:12 AM 35.6 °F 29.9 °F 21.2 °F 56% 29.92 in 10.0 mi SSW 6.9 mph 16.1 mph N/A   Clear
12:32 AM 35.6 °F 28.6 °F 21.2 °F 56% 29.92 in 10.0 mi South 9.2 mph - N/A   Clear
12:52 AM 35.6 °F 28.6 °F 21.2 °F 56% 29.91 in 10.0 mi South 9.2 mph - N/A   Clear
1:12 AM 35.6 °F 29.2 °F 21.2 °F 56% 29.91 in 10.0 mi South 8.1 mph - N/A   Clear
1:32 AM 35.6 °F 29.2 °F 21.2 °F 56% 29.91 in 10.0 mi South 8.1 mph - N/A   Clear
1:52 AM 35.6 °F 29.9 °F 19.4 °F 52% 29.92 in 10.0 mi SSW 6.9 mph - N/A   Clear
2:12 AM 35.6 °F 29.2 °F 19.4 °F 52% 29.92 in 10.0 mi SSW 8.1 mph - N/A   Clear
2:32 AM 33.8 °F 27.7 °F 19.4 °F 56% 29.92 in 10.0 mi South 6.9 mph - N/A   Clear
2:52 AM 33.8 °F 27.7 °F 19.4 °F 56% 29.93 in 10.0 mi South 6.9 mph - N/A   Clear
3:12 AM 32.0 °F 24.8 °F 19.4 °F 60% 29.93 in 10.0 mi South 8.1 mph - N/A   Clear
3:32 AM 30.2 °F 24.3 °F 19.4 °F 64% 29.92 in 10.0 mi SSW 5.8 mph - N/A   Clear
3:52 AM 30.2 °F 24.3 °F 19.4 °F 64% 29.92 in 10.0 mi South 5.8 mph - N/A   Clear
4:12 AM 30.2 °F 26.7 °F 19.4 °F 64% 29.92 in 10.0 mi SSW 3.5 mph - N/A   Clear
4:32 AM 30.2 °F 25.4 °F 19.4 °F 64% 29.91 in 10.0 mi South 4.6 mph - N/A   Clear
4:52 AM 30.2 °F 23.4 °F 19.4 °F 64% 29.91 in 10.0 mi South 6.9 mph - N/A   Clear
5:12 AM 30.2 °F 26.7 °F 19.4 °F 64% 29.91 in 10.0 mi SSW 3.5 mph - N/A   Clear
5:32 AM 30.2 °F - 19.4 °F 64% 29.92 in 10.0 mi Calm Calm - N/A   Clear
6:12 AM 28.4 °F 23.3 °F 17.6 °F 64% 29.92 in 10.0 mi South 4.6 mph - N/A   Clear
6:31 AM 28.4 °F - 17.6 °F 64% 29.93 in 10.0 mi Calm Calm - N/A   Clear
6:52 AM 24.8 °F - 17.6 °F 74% 29.94 in 10.0 mi Calm Calm - N/A   Clear
7:12 AM 21.2 °F - 17.6 °F 86% 29.94 in 10.0 mi Calm Calm - N/A   Clear
7:31 AM 23.0 °F - 17.6 °F 80% 29.94 in 10.0 mi Calm Calm - N/A   Clear
7:52 AM 21.2 °F - 15.8 °F 80% 29.94 in 10.0 mi Calm Calm - N/A   Clear
8:12 AM 23.0 °F - 17.6 °F 80% 29.94 in 10.0 mi Calm Calm - N/A   Clear
8:31 AM 23.0 °F - 17.6 °F 80% 29.95 in 10.0 mi Calm Calm - N/A   Clear
8:52 AM 24.8 °F - 17.6 °F 74% 29.95 in 10.0 mi Calm Calm - N/A   Clear
9:12 AM 21.2 °F - 15.8 °F 80% 29.96 in 10.0 mi Calm Calm - N/A   Clear
9:32 AM 24.8 °F - 17.6 °F 74% 29.96 in 10.0 mi Calm Calm - N/A   Clear
9:52 AM 24.8 °F - 17.6 °F 74% 29.97 in 10.0 mi Calm Calm - N/A   Clear
10:12 AM 26.6 °F - 19.4 °F 74% 29.98 in 10.0 mi Calm Calm - N/A   Clear
10:32 AM 32.0 °F 24.8 °F 19.4 °F 60% 29.98 in 10.0 mi WSW 8.1 mph - N/A   Clear
10:52 AM 30.2 °F 24.3 °F 19.4 °F 64% 29.98 in 10.0 mi West 5.8 mph - N/A   Clear
11:12 AM 32.0 °F 28.7 °F 19.4 °F 60% 29.98 in 10.0 mi WSW 3.5 mph - N/A   Clear
11:32 AM 32.0 °F 27.5 °F 19.4 °F 60% 29.99 in 10.0 mi West 4.6 mph - N/A   Clear
11:52 AM 32.0 °F 26.4 °F 21.2 °F 64% 29.99 in 10.0 mi West 5.8 mph - N/A   Clear
12:12 PM 32.0 °F 26.4 °F 21.2 °F 64% 29.99 in 10.0 mi West 5.8 mph - N/A   Clear
12:32 PM 32.0 °F 26.4 °F 21.2 °F 64% 30.00 in 10.0 mi West 5.8 mph - N/A   Clear
12:52 PM 33.8 °F 29.6 °F 19.4 °F 56% 29.99 in 10.0 mi West 4.6 mph - N/A   Clear
1:12 PM 33.8 °F 30.8 °F 19.4 °F 56% 30.00 in 10.0 mi West 3.5 mph - N/A   Clear
1:32 PM 33.8 °F 30.8 °F 19.4 °F 56% 30.00 in 10.0 mi West 3.5 mph - N/A   Clear
1:52 PM 33.8 °F - 19.4 °F 56% 29.99 in 10.0 mi Calm Calm - N/A   Clear
2:12 PM 33.8 °F - 19.4 °F 56% 30.00 in 10.0 mi Calm Calm - N/A   Clear
2:32 PM 33.8 °F 30.8 °F 19.4 °F 56% 30.00 in 10.0 mi NNE 3.5 mph - N/A   Clear
2:52 PM 32.0 °F - 19.4 °F 60% 30.01 in 10.0 mi Calm Calm - N/A   Clear
3:12 PM 32.0 °F - 19.4 °F 60% 30.01 in 10.0 mi Calm Calm - N/A   Clear
3:32 PM 33.8 °F - 19.4 °F 56% 30.02 in 10.0 mi Calm Calm - N/A   Clear
3:51 PM 32.0 °F - 19.4 °F 60% 30.03 in 10.0 mi Calm Calm - N/A   Clear
4:12 PM 30.2 °F - 19.4 °F 64% 30.04 in 10.0 mi Calm Calm - N/A   Clear
4:32 PM 28.4 °F 23.3 °F 19.4 °F 69% 30.05 in 10.0 mi WSW 4.6 mph - N/A   Clear
7:12 PM 19.4 °F - 15.8 °F 86% 30.09 in 10.0 mi Calm Calm - N/A   Clear
7:32 PM 17.6 °F 10.7 °F 14.0 °F 86% 30.09 in 10.0 mi WNW 4.6 mph - N/A   Clear
7:52 PM 19.4 °F - 17.6 °F 93% 30.09 in 10.0 mi Calm Calm - N/A   Clear
8:12 PM 14.0 °F 8.2 °F 12.2 °F 93% 30.08 in 7.0 mi WNW 3.5 mph - N/A   Clear
8:32 PM 19.4 °F 14.3 °F 17.6 °F 93% 30.08 in 7.0 mi WNW 3.5 mph - N/A   Clear
8:52 PM 17.6 °F - 15.8 °F 93% 30.09 in 7.0 mi Calm Calm - N/A   Clear
9:12 PM 14.0 °F - 12.2 °F 93% 30.09 in 7.0 mi Calm Calm - N/A   Clear
9:32 PM 12.2 °F - 12.2 °F 100% 30.09 in 5.0 mi Calm Calm - N/A   Clear
9:52 PM 14.0 °F - 12.2 °F 93% 30.09 in 7.0 mi Calm Calm - N/A   Clear
10:11 PM 14.0 °F - 12.2 °F 93% 30.11 in 7.0 mi Calm Calm - N/A   Clear
10:32 PM 15.8 °F - 14.0 °F 93% 30.10 in 7.0 mi Calm Calm - N/A   Clear
10:52 PM 15.8 °F - 15.8 °F 100% 30.11 in 7.0 mi Calm Calm - N/A   Clear
11:12 PM 12.2 °F - 10.4 °F 92% 30.11 in 5.0 mi Calm Calm - N/A   Clear
11:32 PM 14.0 °F - 12.2 °F 93% 30.11 in 5.0 mi Calm Calm - N/A   Clear
11:52 PM 12.2 °F - 10.4 °F 92% 30.11 in 5.0 mi Calm Calm - N/A   Clear